{"data":{"norad_id":68168,"intl_designator":"2026-050B","name":"STARLINK-36984","alt_names":[],"object_type":"PAYLOAD","status":"ACTIVE","operator":null,"country":"US","launch_date":"2026-03-14","launch_site_code":"AFETR","launch_vehicle":null,"mission":null,"orbit_class":"UNKNOWN","rcs_meters":null,"size_class":null,"mass_kg":null,"dimensions":null,"purposes":["comms"],"wikipedia_slug":null,"has_3d_model":false,"image_url":null,"decayed_at":null,"tle_current":{"epoch":"2026-05-25T01:24:59.811840Z","epoch_age_seconds":66029,"freshness":"FRESH","line1":"1 68168U 26050B   26145.05902560  .00046574  00000+0  10722-2 0  9996","line2":"2 68168  53.1596 271.4725 0001001  85.1486 274.9634 15.42188568 12389","mean_motion":15.42188568,"eccentricity":0.0001001,"inclination_deg":53.1596,"raan_deg":271.4725,"arg_perigee_deg":85.1486,"mean_anomaly_deg":274.9634,"bstar":0.0010722,"rev_number":1238,"period_min":93.373795518889,"perigee_km":438.96899515995,"apogee_km":440.3339164088,"semimajor_km":6817.7884557844,"source":"CELESTRAK","updated_at":"2026-05-25T13:38:21.852394Z"}}}